Tracking 31027 objects as of 19-Jul-2025
HD Live streaming from Space Station
objects crossing your sky now

SL-6 R/B(2)

Track SL-6 R/B(2) now!


NORAD ID: 10089
Int'l Code: 1977-047D
Perigee: 4,879.8 km
Apogee: 35,718.0 km
Inclination: 66.5 °
Period: 722.4 minutes
Semi major axis: 26669 km
RCS: 4.9235 m2 (large)
Launch date: June 16, 1977
Source: Commonwealth of Independent States (former USSR) (CIS)
Launch site: PLESETSK MISSILE AND SPACE COMPLEX (PKMTR)

Note: This is a ROCKET BODY
Your satellite tracking list
MOLNIYA 1-86
Track 1 satellite(s)




NASA's NSSDC Master Catalog

Two Line Element Set (TLE):
1 10089U 77047D   25199.18946061 -.00000621  00000-0  00000-0 0  9994
2 10089  66.5384 116.2362 5781470 309.6835  12.1354  1.99329144253793
Source of the keplerian elements: AFSPC